Location: Kopernik Observatory
(42.0014°N, 76.0372°W)
Time: 15:44:19
(UTC-04:00)

Daily predictions for brighter satellites

Satellite Brightness Start Highest point End
(mag) Time Altitude Azimuth Time Altitude Azimuth Time Altitude Azimuth
Cosmos 1939 Rocket 4.1 20:16:59 10° ESE 20:20:06 23° ENE 20:23:13 10° NNE
Cosmos 1633 3.5 20:18:31 10° SSW 20:22:05 55° W 20:25:41 10° N
Tiangong 1 1.4 20:21:31 10° W 20:24:14 46° SSW 20:26:54 10° SE
H-2A R/B 3.4 20:20:57 10° S 20:24:40 58° W 20:28:22 10° NNW
SL-8 R/B 4.4 20:21:31 10° WNW 20:26:10 48° NNE 20:30:50 10° E
ALOS 4.3 20:27:08 10° SSW 20:31:16 31° W 20:35:24 10° NNW
USA 267 3.4 20:24:58 10° SE 20:31:32 76° SW 20:38:07 10° NW
Cosmos 1553 Rocket 4.0 20:26:09 10° N 20:32:20 85° E 20:38:24 10° S
S3M 4.0 20:26:05 10° N 20:32:24 79° E 20:38:46 10° S
Meteor 1-13 Rocket 4.4 20:27:19 10° N 20:33:19 84° E 20:39:15 10° S
NOSS 2-3 (D) 3.8 20:29:09 10° SSW 20:33:47 80° ESE 20:39:12 10° NE
Cosmos 2266 Rocket 4.2 20:29:04 10° SSE 20:34:47 47° E 20:40:32 10° NNE
YAOGAN 6 3.8 20:35:41 11° ESE 20:38:19 23° ENE 20:41:10 10° NNE
Resurs 01 Rocket 1.7 20:37:57 10° SSE 20:42:24 85° WSW 20:46:53 10° NNW
Cosmos 2151 Rocket 3.9 20:39:17 10° SSW 20:43:39 70° W 20:48:04 10° N
Cosmos 2263 Rocket 2.2 20:40:07 10° NNW 20:45:51 87° ENE 20:51:32 10° SSE
Envisat 3.0 20:41:44 10° SSE 20:46:47 71° ENE 20:51:51 10° N
Cosmos 1741 Rocket 4.2 20:43:24 10° NNW 20:48:39 78° WSW 20:53:54 10° SSE
Abrixas 3.5 20:46:52 10° SSW 20:48:52 20° SE 20:49:11 19° SE
Cosmos 2315 Rocket 4.5 20:43:21 10° N 20:49:17 42° ENE 20:55:06 10° SE
Cosmos 1536 Rocket 3.8 20:46:54 10° NNW 20:51:14 70° W 20:55:32 10° S
Cosmos 1844 Rocket 4.0 20:47:03 10° N 20:51:38 24° NE 20:55:09 14° E
Cosmos 2278 Rocket 4.3 20:51:02 10° NNE 20:52:51 11° NE 20:54:40 10° ENE
Cosmos 2322 Rocket 2.8 20:47:47 10° SW 20:53:25 63° WNW 20:59:06 10° NNE
Lacrosse 5 1.9 20:49:26 10° SW 20:54:31 83° NW 20:59:38 10° NE
Atlas Centaur 2 4.2 20:49:49 10° WSW 20:56:42 28° SSW 21:02:22 12° SE
ATLAS 2AS CENTAUR R/B 3.0 20:52:27 10° SSW 21:00:09 86° ESE 21:08:20 10° NE
Helios 1B rocket 3.0 21:01:32 10° NNE 21:05:19 35° E 21:08:10 16° SSE
Cosmos 1515 4.4 21:02:54 10° N 21:06:26 35° ENE 21:08:00 24° ESE
SL-16 R/B 3.3 21:01:40 10° SW 21:07:08 49° WNW 21:12:39 10° NNE
SJ-11-01 4.2 21:03:16 11° SSE 21:07:49 77° ENE 21:12:30 10° N
H-2A R/B 3.7 21:06:16 14° E 21:07:56 17° ENE 21:11:01 10° NNE
Cosmos 2219 Rocket 3.5 21:08:26 19° ESE 21:08:39 19° E 21:12:28 10° ENE
Cosmos 1110 Rocket 3.9 21:11:18 10° SSW 21:16:28 82° ESE 21:21:40 10° NNE
Cosmos 2322 3.6 21:14:49 10° SSW 21:20:26 74° ESE 21:26:07 10° NNE
Cosmos 1500 3.6 21:19:37 30° SE 21:20:55 41° E 21:24:35 10° NNE
SeaSat 1 2.3 21:16:27 10° NNE 21:21:25 81° ESE 21:26:21 10° SSW
Delta 2 Rocket 4.1 21:17:49 10° WSW 21:21:27 34° S 21:22:34 29° SE
SAR-Lupe-4 4.2 21:23:05 34° E 21:23:44 37° ENE 21:27:05 10° N
Cosmos 2360 Rocket 2.2 21:19:01 10° SSW 21:24:39 85° WNW 21:30:19 10° NNE
Meteor 1-23 Rocket 4.5 21:20:05 10° NNW 21:25:38 68° W 21:31:10 10° S
Abrixas rocket 3.2 21:23:20 10° NW 21:26:27 39° NNE 21:27:31 29° ENE
Terra 4.0 21:25:53 10° ENE 21:26:29 11° ENE 21:27:30 10° NE
Okean 2 3.2 21:23:07 10° N 21:27:13 79° E 21:29:21 27° SSE
Cosmos 405 3.4 21:27:10 39° E 21:27:16 39° E 21:30:40 10° NNE
Cosmos 1331 Rocket 3.9 21:22:22 10° SSW 21:27:34 90° NW 21:32:49 10° NNE
OPS 6432 4.2 21:24:58 10° SSW 21:28:38 68° SE 21:31:43 10° NE
Cosmos 482 Debris 3.7 21:26:31 10° SW 21:30:50 61° SE 21:31:10 55° ESE
Cosmos 1455 Rocket 3.8 21:32:44 32° E 21:32:50 32° E 21:36:47 10° NNE
COSMOS 2428 2.8 21:28:01 10° S 21:33:32 51° ESE 21:39:04 10° NE
Cosmos 1975 3.1 21:33:35 41° ESE 21:33:55 42° E 21:37:42 10° NNE
Cosmos 1844 4.4 21:31:29 10° N 21:36:50 40° ENE 21:38:50 30° ESE
Cosmos 1241 Rocket 4.5 21:32:15 10° SSW 21:38:43 63° ESE 21:45:07 10° NE
SAR-Lupe-1 4.3 21:40:18 49° E 21:40:27 50° ENE 21:43:56 10° N
CZ-4B DEB 2.5 21:42:43 77° NW 21:42:43 77° NW 21:45:26 10° NNW
Meteor 1-12 Rocket 4.3 21:42:25 30° SSE 21:44:59 54° E 21:50:29 10° NNE
MetOp-A 4.1 21:42:58 35° SE 21:45:12 67° ENE 21:50:31 10° N
NOAA 11 4.1 21:42:55 29° SSE 21:45:52 84° ENE 21:51:24 10° NNW
Cosmos 2333 Rocket 3.0 21:47:12 30° E 21:47:12 30° E 21:51:23 10° NE
Cosmos 1025 Rocket 3.7 21:43:47 10° NNW 21:47:56 51° W 21:50:37 20° SSW
Cosmos 2333 4.1 21:46:21 10° SSW 21:51:57 67° ESE 21:57:32 10° NNE
NOSS 3-2 (A) 4.1 21:46:39 10° NNW 21:54:06 66° NE 21:57:47 35° ESE
Nadezhda 1 Rocket 4.4 21:50:27 10° N 21:56:33 47° ENE 21:58:07 39° ESE
USA 238 DEB 3.9 21:50:31 10° NW 21:57:36 74° WSW 22:01:04 33° SSE
USA 238 3.9 21:50:37 10° NW 21:57:43 74° WSW 22:01:09 33° SSE
Cosmos 2237 Rocket 3.7 22:00:25 20° ENE 22:00:25 20° ENE 22:02:43 10° NE
Cosmos 1244 Rocket 4.5 21:53:50 10° S 21:59:58 80° W 22:06:08 10° N
Cosmos 1437 Rocket 3.9 22:01:26 32° NE 22:01:26 32° NE 22:03:52 10° NNE
Helios 1A 4.3 22:01:08 22° SSW 22:03:22 37° W 22:07:20 10° NNW
Cosmos 1666 4.4 22:07:56 23° NE 22:07:56 23° NE 22:09:40 10° NNE
ATLAS 3B R/B 3.1 22:00:33 10° NW 22:07:02 54° WSW 22:09:58 31° S
Cosmos 1238 Rocket 4.0 22:00:30 10° N 22:07:12 81° W 22:10:05 34° S
ERS-1 Rocket 3.2 22:06:58 39° S 22:08:45 67° WSW 22:13:46 10° NNW
Cosmos 1818 3.5 22:03:21 10° SSW 22:08:47 85° WNW 22:14:16 10° NNE
SL-8 R/B 3.8 22:04:08 10° WNW 22:08:51 59° SW 22:09:13 57° SSW
SPOT 1/Viking Rocket 3.7 22:08:49 52° E 22:09:23 55° ENE 22:14:29 10° N
Cosmos 1503 Rocket 4.0 22:07:19 10° NNW 22:12:41 65° ENE 22:13:20 59° ESE
Cosmos 1066 Rocket 4.2 22:08:22 10° NNW 22:13:49 77° W 22:15:33 45° S
ARGOS 3.1 22:12:31 51° S 22:13:55 85° WSW 22:19:19 10° NNW
SL-08 R/B 4.4 22:10:49 32° S 22:13:58 86° E 22:20:19 10° N
SL-08 RB Rocket 3.5 22:15:40 81° ESE 22:15:49 83° ENE 22:20:22 10° N
Cosmos 1602 Rocket 4.4 22:14:00 10° N 22:17:09 37° NE 22:17:09 37° NE
H-2A R/B 4.2 22:20:29 16° NE 22:20:29 16° NE 22:22:14 10° NNE
ATLAS CENTAUR R/B 3.9 22:24:05 10° NNE 22:24:36 11° NNE 22:24:36 11° NNE
YAOGAN 11 4.2 22:27:10 72° NNW 22:27:10 72° NNW 22:31:04 10° NNW
BREEZE-M DEB (TANK) 4.4 22:22:43 10° W 22:26:52 54° N 22:42:40 10° ENE
Cosmos 1743 3.8 22:29:25 40° N 22:29:25 40° N 22:31:58 10° N
USA 245 3.9 22:31:48 61° WSW 22:31:51 61° WSW 22:35:53 10° NNW
SPOT 5 2.9 22:31:51 71° WSW 22:31:57 71° WSW 22:36:35 10° NNW
COSMOS 2455 4.2 22:28:29 10° N 22:33:24 25° NE 22:34:25 24° ENE
NOSS 3-2 (C) 3.9 22:27:02 10° NW 22:34:37 85° NE 22:36:46 54° SE
Cosmos 2292 Rocket 4.5 22:33:59 58° SSE 22:35:22 77° E 22:41:04 10° N
Cosmos 1844 Rocket 3.1 22:30:20 10° NNW 22:35:53 55° WSW 22:36:49 49° SW
NOSS 0 Rocket 3.8 22:38:09 70° ESE 22:38:09 70° ESE 22:44:22 10° NNE
Lacrosse 5 4.2 22:34:07 10° WNW 22:38:09 23° NNW 22:42:13 10° NNE
Cosmos 2278 Rocket 2.3 22:32:31 10° NNW 22:38:09 62° ENE 22:38:10 62° ENE
Cosmos 1626 Rocket 4.2 22:36:43 10° N 22:39:57 50° N 22:39:57 50° N
Meteor 1-21 4.1 22:41:07 10° N 22:46:47 86° W 22:46:52 85° SW
H-2A R/B 2.2 22:46:54 62° W 22:46:54 62° W 22:51:49 10° NNW
Landsat 7 4.2 22:48:56 61° N 22:48:56 61° N 22:52:53 10° NNW
Cosmos 1992 Rocket 4.3 22:49:28 60° NNE 22:49:28 60° NNE 22:53:44 10° NNE
Cosmos 2219 Rocket 2.5 22:50:02 39° SW 22:52:03 62° WNW 22:57:40 10° NNE
Cosmos 1745 Rocket 4.4 22:50:53 40° SW 22:52:57 58° W 22:59:02 10° N
Cosmos 968 Rocket 4.1 22:48:42 10° N 22:52:42 45° NNE 22:52:42 45° NNE
CENTAUR R/B 3.5 22:47:03 10° NNW 22:54:42 53° NE 22:56:35 45° E
Meteor 2-9 Rocket 4.3 22:59:11 71° NNE 22:59:11 71° NNE 23:04:12 10° N
Timation 1 Rocket 4.3 22:54:46 10° NNW 23:00:35 81° WNW 23:00:35 81° WNW
NOSS 3-4 (A) 3.7 22:56:26 14° SW 23:01:49 68° NW 23:08:19 10° NNE
NOSS 3-4 (C) 3.7 22:57:09 18° SW 23:01:55 69° NW 23:08:25 10° NNE
Terra 2.6 23:04:46 49° N 23:04:46 49° N 23:08:14 10° NNW
SL-16 R/B 4.0 23:11:39 21° NE 23:11:39 21° NE 23:13:36 10° NE
Cosmos 2333 Rocket 3.4 23:29:06 33° W 23:30:35 38° WNW 23:35:52 10° N
Cosmos 2237 Rocket 3.1 23:42:11 44° NW 23:42:11 44° NW 23:47:18 10° NNE
Cosmos 2369 Rocket 4.2 23:38:55 10° N 23:42:42 19° NE 23:42:42 19° NE
H-2A R/B 4.4 23:57:37 22° NW 23:57:37 22° NW 23:59:18 10° NNW
